Ricardo Xhaka

Jefe de ojeadores - Grasshopper
3 Dic 2028
Domingo
Continuar

Personalidad

Adaptabilidad (10) Ambición (5) Controversia (11) Lealtad (6) Presión (6) Profesionalismo (6) Deportividad (20) Temperamento (4)

Perfil

Estilo de dirección Democrático
Licencia Continental C
Determinación 9
Gestión de personas 11
Motivación 9
Disciplina 6
Satisfacción laboral
100%
Fatiga
0%
Cargo Jefe de ojeadores
Salario 28.4K p/s
Contrato 14.03.2030

Rendimiento

Comportamiento Bueno
Efectividad del entrenamiento
45%
Desarrollo de jugadores
30%
Prevención de lesiones
30%
Implementación táctica
45%

Eventos recientes

Asistió a una reunión de captación ahora
Asistió a una reunión de captación ahora
Cumpleaños 7d atrás
Asistió a una reunión de captación 7d atrás
Asistió a una reunión de captación 7d atrás
Recomendó un objetivo de fichaje 7d atrás
Recomendó un objetivo de fichaje 7d atrás
Recomendó un objetivo de fichaje 14d atrás

Actualmente siguiendo

158
Jugador Club Estado Habilidad Confianza Observado Última observación Último voto
Sergio Córdova Young Boys Perdido 112 / 127 72% 1 24.07.2028 -
Jake Evans Crewe Alexandra Activo 109 / 117 40% 4 30.05.2028 -
Eli Junior Kroupi Bournemouth Activo 140 / 150 40% 6 30.05.2028 -
Tyler Fletcher Rotherham United Activo 108 / 127 40% 2 30.05.2028 -
Ryan McAidoo Oldham Athletic Activo 118 / 119 40% 6 29.05.2028 -
Kerim Alajbegović Modena Activo 139 / 145 40% 4 29.05.2028 -
André Miranda Porto Activo 120 / 119 40% 2 28.05.2028 -
Gabe Forsyth Colchester United Activo 116 / 117 40% 6 27.05.2028 -
Oskar Pietuszewski Estrela da Amadora Activo 136 / 138 40% 4 27.05.2028 -
Rio Ngumoha Plymouth Argyle Activo 142 / 152 40% 4 27.05.2028 -
Lennart Karl TSG Hoffenheim Activo 139 / 140 40% 7 25.05.2028 -
Fletcher Boyd Accrington Stanley Activo 99 / 106 40% 1 25.05.2028 -
Luca Williams-Barnett Walsall Activo 123 / 124 40% 9 23.05.2028 -
Suleman Sani Werder Bremen Activo 137 / 140 40% 4 21.05.2028 -
Honest Ahanor Atalanta Activo 139 / 135 40% 4 21.05.2028 -
Ben Broggio Mansfield Town Activo 107 / 108 40% 6 20.05.2028 -
Jorge Salinas Racing Santander Activo 130 / 139 40% 4 19.05.2028 -
Amin Nabizada Exeter City Activo 112 / 124 40% 6 19.05.2028 -
Gabriel Mec Feirense Activo 131 / 131 40% 6 17.05.2028 -
Mustafa Hekimoğlu Antalyaspor Activo 128 / 140 40% 3 16.05.2028 -
Ryan Kavuma-McQueen Accrington Stanley Activo 123 / 135 40% 7 14.05.2028 -
Christos Mouzakitis Hull City Activo 142 / 136 40% 3 13.05.2028 -
Shea Lacey Crystal Palace Activo 136 / 142 40% 1 13.05.2028 -
Aarón Ochoa Málaga Activo 117 / 120 40% 5 10.05.2028 -
Babis Kostoulas Oxford United Activo 145 / 152 40% 6 10.05.2028 -
Leo Pecover Swindon Town Activo 101 / 107 40% 2 10.05.2028 -
Josh Nichols Oldham Athletic Activo 116 / 130 40% 5 05.05.2028 -
Omar Khedr Gillingham Activo 115 / 113 40% 2 05.05.2028 -
Otto Stange Borussia Mönchengladbach Activo 130 / 122 40% 3 04.05.2028 -
Oscar Schwartau Norwich City Activo 129 / 132 40% 6 01.05.2028 -
Ibrahim Fullah Charlton Athletic Activo 125 / 130 40% 6 01.05.2028 -
Ryunosuke Sato Eibar Activo 130 / 139 40% 4 25.04.2028 -
Luca Meirelles Kudrivka Activo 132 / 114 40% 1 23.04.2028 -
Rémi Himbert AC Ajaccio Activo 118 / 126 40% 3 22.04.2028 -
Igor Tyjon Barrow AFC Activo 113 / 116 40% 4 22.04.2028 -
Siyabonga Mabena Bidvest Wits Activo 112 / 123 40% 2 18.04.2028 -
Trey Nyoni Rotherham United Activo 136 / 143 40% 4 13.04.2028 -
Gorka Gorosabel Real Sociedad Activo 117 / 129 40% 3 13.04.2028 -
Henrique Carmo Sochi Activo 131 / 141 40% 1 10.04.2028 -
Eduardo Fernandes Benfica Activo 122 / 128 40% 1 07.04.2028 -
Gomolemo Kekana Maritzburg United Activo 112 / 117 40% 5 12.03.2028 -
Nana Nuhu WAFA Activo 97 / 82 40% 1 04.03.2028 -
Matias Siltanen Malmo FF Activo 126 / 113 40% 1 01.03.2028 -
Lander Astiazarán Real Sociedad Activo 107 / 116 40% 2 28.02.2028 -
Ruben Ramos LA Galaxy Activo 99 / 101 40% 1 28.02.2028 -
Esquerdinha Notts County Activo 123 / 126 40% 1 17.02.2028 -
Lewis Orford Crewe Alexandra Activo 114 / 113 40% 1 12.02.2028 -
Christ Wawa Gefle Activo 93 / 125 40% 1 08.02.2028 -
Olivier Mambwa Young Boys Perdido 112 / 118 40% 1 24.01.2028 -
Juan Camilo Córdoba Deportivo Pereira Activo 89 / 86 40% 1 05.01.2028 -
Josh Acheampong Everton Activo 136 / 138 40% 1 05.01.2028 -
Mao Hosoya Santos Activo 134 / 135 67% 1 01.01.2028 Aprobar
Daniel Idoko Ikorodu City Activo 85 / 109 40% 1 31.12.2027 -
Zane Albarus Shrewsbury Town Activo 104 / 101 40% 1 31.12.2027 -
Federico Matarán Giana Erminio Activo 91 / 110 40% 2 28.06.2027 -
Sascha Britschgi AC Milan Activo 116 / 128 40% 2 28.06.2027 -
Godwin Oham Warri Wolves Activo 85 / 85 40% 1 28.06.2027 -
Tommaso Cecotti Carpi Activo 95 / 91 40% 1 03.06.2027 -
Brooke Norton-Cuffy Hull City Activo 131 / 129 40% 7 28.05.2027 -
Kristoffer Lund Birmingham Activo 123 / 124 40% 1 28.05.2027 -
Romelle Donovan Brentford Activo 123 / 132 40% 1 28.05.2027 -
Riley Owen Stevenage Activo 99 / 117 40% 1 27.05.2027 -
Toby Collyer West Bromwich Albion Activo 129 / 137 40% 6 25.05.2027 -
Milan van Ewijk Coventry City Activo 134 / 131 40% 5 23.05.2027 -
Calum Agius Crewe Alexandra Activo 91 / 96 40% 2 23.05.2027 -
Lewis Bate Stockport County Activo 124 / 112 40% 1 23.05.2027 -
Ethan Pye Stockport County Activo 113 / 127 40% 4 21.05.2027 -
Jack Currie Oxford United Activo 122 / 126 40% 3 21.05.2027 -
Leo Castledine Middlesbrough Activo 128 / 134 40% 3 21.05.2027 -
Sanel Šaljić Austria Wien Activo 114 / 127 40% 1 21.05.2027 -
Florentino Luís Ipswich Town Activo 146 / 149 40% 7 19.05.2027 Observar
Joel Bagan Cardiff City Activo 110 / 112 40% 9 19.05.2027 -
Max Bird Birmingham Activo 138 / 139 40% 5 19.05.2027 -
Welington Southampton Activo 131 / 136 40% 2 18.05.2027 -
Alfie Gilchrist West Bromwich Albion Activo 123 / 131 40% 1 18.05.2027 -
Shea Charles Southampton Activo 130 / 137 40% 4 15.05.2027 -
Bosun Lawal Stoke City Activo 131 / 137 40% 6 15.05.2027 -
Dennis Cirkin Queens Park Rangers Activo 135 / 136 40% 4 13.05.2027 -
Samuele di Benedetto Twente Activo 119 / 127 40% 3 13.05.2027 -
Víctor Guzmán Sporting CP Activo 94 / 102 40% 2 13.05.2027 -
Gabriele Bertolini Vicenza Activo 102 / 109 40% 3 12.05.2027 -
Asanele Bonani Chippa United Activo 98 / 91 40% 1 12.05.2027 -
Lucas Ferreira Shakhtar Activo 130 / 122 40% 1 12.05.2027 -
Lewis Ferguson Bologna Activo 148 / 139 40% 4 10.05.2027 -
Darlin Yongwa Norwich City Activo 126 / 116 40% 4 09.05.2027 -
Jonathan Varane Queens Park Rangers Activo 121 / 132 40% 2 09.05.2027 -
Max Johnston Derby County Activo 130 / 120 40% 4 09.05.2027 -
Luke McNally Bristol City Activo 133 / 132 40% 8 06.05.2027 -
Lee Buchanan Sheffield Wednesday Activo 118 / 120 40% 2 06.05.2027 -
Pelle Mattsson Norwich City Activo 124 / 135 40% 2 06.05.2027 -
Jacob Greaves Ipswich Town Activo 142 / 128 40% 2 05.05.2027 -
Harry Clarke Preston Activo 130 / 136 40% 5 04.05.2027 -
Ryan Oné Sheffield United Activo 115 / 126 40% 1 04.05.2027 -
Terry Devlin Portsmouth Activo 121 / 114 40% 1 01.05.2027 -
Alexander Prass TSG Hoffenheim Activo 137 / 132 40% 5 30.04.2027 -
Zakaria El Ouahdi Hamburger SV Activo 130 / 137 40% 4 30.04.2027 -
Aidan Morris Middlesbrough Activo 126 / 120 40% 5 29.04.2027 -
Jacques Ekomié Wrexham Activo 133 / 141 40% 5 26.04.2027 -
Derry Murkin Derby County Activo 134 / 118 40% 2 26.04.2027 -
Bence Dárdai VfL Wolfsburg Activo 137 / 124 40% 1 26.04.2027 -
Oliver Skipp Leicester City Activo 126 / 125 40% 3 22.04.2027 -
Max Rosenfelder SC Freiburg Activo 130 / 142 40% 2 14.04.2027 -
Harrison Burrows Sheffield United Activo 120 / 132 40% 1 11.04.2027 -
Habib Diarra Sunderland Activo 141 / 136 40% 2 05.04.2027 -
Alfie Doughty Millwall Activo 125 / 121 40% 2 03.04.2027 -
Tariq Lamptey Queens Park Rangers Activo 137 / 132 40% 1 02.04.2027 -
Max Arfsten Middlesbrough Activo 122 / 136 40% 1 30.03.2027 -
Enrico Delprato Parma Activo 144 / 135 40% 2 22.03.2027 -
Japhet Tanganga Sheffield United Activo 137 / 141 40% 1 22.03.2027 -
Adis Jašić Zamalek Activo 124 / 113 40% 1 16.03.2027 -
Brian De Keersmaecker Oxford United Activo 118 / 113 40% 1 16.03.2027 -
Johnly Yfeko Exeter City Activo 105 / 112 40% 1 12.03.2027 -
Alessandro Buongiorno Cagliari Activo 149 / 154 40% 1 06.03.2027 -
Samuel Edozie Southampton Activo 131 / 133 40% 1 05.03.2027 -
Marcelo Allende Mamelodi Sundowns Activo 124 / 129 40% 2 04.03.2027 -
Juan Bezerra Zamalek Activo 123 / 128 40% 1 03.03.2027 -
Oswin Appollis Orlando Pirates Activo 135 / 123 40% 1 03.03.2027 -
Isaiah Jones Luton Town Activo 128 / 122 40% 3 02.03.2027 -
Ilyas Ansah Hull City Activo 137 / 143 40% 1 02.03.2027 -
Bazoumana Touré Newcastle United Activo 140 / 138 40% 1 02.03.2027 -
Peter Federico Gornik Zabrze Activo 134 / 133 40% 2 28.02.2027 -
Scott Twine Bristol City Activo 116 / 129 40% 1 28.02.2027 -
Jason Knight Bristol City Activo 134 / 122 40% 1 26.02.2027 -
Jack Rudoni Coventry City Activo 131 / 142 40% 2 25.02.2027 -
Cian Ashford Cardiff City Activo 123 / 113 40% 2 25.02.2027 -
Mohamed-Ali Cho Hull City Activo 134 / 127 40% 2 20.02.2027 -
Nathan Moriah-Welsh Mansfield Town Activo 106 / 111 40% 1 20.02.2027 -
Derensili Sanches Fernandes Huddersfield Town Activo 118 / 124 40% 1 14.02.2027 -
Nicolas Madsen Queens Park Rangers Activo 129 / 127 40% 1 14.02.2027 -
Armstrong Oko-Flex Levski Activo 119 / 110 40% 1 12.02.2027 -
Jack Diamond Stockport County Activo 120 / 127 40% 1 12.02.2027 -
Raoul Bellanova Atalanta Activo 144 / 148 40% 1 08.02.2027 -
Matt O'Riley Brighton Activo 142 / 142 40% 1 08.02.2027 -
Finn Azaz Southampton Activo 138 / 119 40% 2 06.02.2027 -
Serge-Philippe Raux-Yao Rapid Wien Activo 123 / 117 40% 3 04.02.2027 -
Petter Nosa Dahl Rapid Wien Activo 120 / 118 40% 1 12.01.2027 -
Peter Shalulile Mamelodi Sundowns Activo 134 / 115 40% 1 12.01.2027 -
Sampson Dweh Mallorca Activo 133 / 134 66% 1 01.01.2027 Aprobar
Lee Tae-Suk Austria Wien Activo 126 / 130 40% 3 11.12.2026 -
Abubakr Barry Red Bull Salzburg Activo 124 / 126 40% 5 10.12.2026 -
Lebogang Manyama SuperSport United Activo 110 / 110 40% 1 10.12.2026 -
Cheick Mamadou Diabaté Wolfsberger AC Activo 123 / 131 40% 1 21.11.2026 -
Metinho Basel Activo 125 / 140 40% 1 20.11.2026 Más información
Dara O'Shea Ipswich Town Activo 132 / 128 40% 1 20.11.2026 -
Armin Gigović Young Boys Activo 129 / 123 40% 1 19.11.2026 -
Boris Matić Red Bull Salzburg Activo 122 / 114 40% 2 08.11.2026 -
Mattia Zanotti Young Boys Activo 125 / 138 40% 1 08.11.2026 -
Paul Koller Sturm Graz Activo 110 / 112 40% 2 07.11.2026 -
Carlo Boukhalfa St. Gallen Activo 116 / 114 40% 1 07.11.2026 -
Fabian Wohlmuth Wolfsberger AC Activo 108 / 112 40% 1 05.11.2026 -
Tom Gaal St. Gallen Activo 117 / 122 40% 1 04.11.2026 -
Isaac Schmidt Young Boys Activo 119 / 127 40% 1 04.11.2026 -
Jordy Makengo SC Freiburg Activo 129 / 138 40% 1 02.11.2026 -
Bendegúz Bolla Rapid Wien Activo 131 / 128 40% 1 05.10.2026 -
Benjamin Böckle Altach Activo 109 / 118 40% 1 05.10.2026 -
Youssoufa Moukoko FC Copenhagen Activo 136 / 131 40% 1 31.08.2026 -
Ryan Gauld Vancouver Whitecaps Activo 127 / 118 40% 1 26.08.2026 -
Julian Niehues Heidenheim Activo 115 / 118 40% 1 01.08.2026 -